User: anonymous   Login
Location: ????? ????
(37.9717°N, 23.4051°E)
Time: 07:19:47
(UTC+00:00)
Language:

Cosmos 1455 - Orbit

View from above orbital plane
View from above orbital plane
View from above satellite
View from above satellite

Ground track
Ground track

The orbit data is extracted from the following two-line orbital elements,

1 14032U 83037A   24164.82970032  .00019121  00000-0  51721-3 0  9992
2 14032  82.5074  71.7979 0011616  17.6430 342.5215 15.37510424249081
Epoch (UTC): 12 June 2024 19:54:46
Eccentricity: 0.0011616
inclination: 82.5074°
perigee height: 445 km
apogee height: 461 km
right ascension of ascending node: 71.7979°
argument of perigee: 17.6430°
revolutions per day: 15.37510424
mean anomaly at epoch: 342.5215°
orbit number at epoch: 24908

The dashed part of the orbit path shows where the satellite is in the earth's shadow,  

DLR